Toronto, Ontario

3:34 PM EDT on June 26, 2017 (GMT -0400)
Toronto

Weather History for CYTZ - November, 2014

Change the Weather History Date:

Saturday, November 8, 2014

  Actual Average Record
Temperature  
Mean Temperature 38 °F -  
Max Temperature 45 °F 42 °F 58 °F (2016)
Min Temperature 30 °F 32 °F 24 °F (2003)
Degree Days  
Heating Degree Days 28    
Moisture  
Dew Point 35 °F    
Average Humidity 77    
Maximum Humidity 87    
Minimum Humidity 54    
Precipitation  
Precipitation 0.02 in 0.09 in - ()
Sea Level Pressure  
Sea Level Pressure 29.77 in    
Wind  
Wind Speed 12 mph ()    
Max Wind Speed 26 mph    
Max Gust Speed 34 mph    
Visibility 9.1 miles    
Events Rain    
Averages and records for this station are not official NWS values.
T = Trace of Precipitation, MM = Missing Value Source: Averaged Metar Reports

Daily Weather History Graph

Daily Weather History Graph

Search for Another Location

Airport or City:

Trip Planner

Search our weather history database for the weather conditions in past years. The results will help you decide how hot, cold, wet, or windy it might be!

Date:

Astronomy

Nov. 08, 2014 Rise Set
Actual Time 7:02 AM EST 4:59 PM EST
Civil Twilight 6:32 AM EST 5:30 PM EST
Nautical Twilight 5:57 AM EST 6:04 PM EST
Astronomical Twilight 5:24 AM EST 6:37 PM EST
Moon 6:38 PM EST (11/8) 8:38 AM EST (11/8)
Length of Visible Light 10h 57m
Length of Day
9h 57m
Waning Gibbous, 96% of the Moon is Illuminated
Nov 8
Waning Gibbous
Nov 14
Last Quarter
Nov 22
New
Nov 29
First Quarter
Dec 6
Full

Hourly Weather History & Observations

Time (EST) Temp. Windchill Dew Point Humidity Pressure Visibility Wind Dir Wind Speed Gust Speed Precip Events Conditions
12:00 AM 33.8 °F - 23.0 °F 65% 30.00 in 9.0 mi West 2.3 mph - N/A   Clear
1:00 AM 34 °F - 23 °F 54% 29.99 in 10 mi WNW 3.5 mph - -  
1:00 AM 33.8 °F - 23.0 °F 65% 29.99 in 9.0 mi WNW 2.3 mph - N/A   Partly Cloudy
2:00 AM 33.8 °F - 24.8 °F 70% 29.98 in 9.0 mi NW 2.3 mph - N/A   Overcast
3:00 AM 35.6 °F 30.7 °F 26.6 °F 70% 29.97 in 9.0 mi SW 5.8 mph - N/A   Overcast
4:00 AM 35.6 °F 30.7 °F 28.4 °F 75% 29.95 in 9.0 mi WNW 5.8 mph - N/A   Overcast
5:00 AM 37.4 °F 31.4 °F 26.6 °F 65% 29.92 in 9.0 mi South 8.1 mph - N/A   Overcast
6:00 AM 39.2 °F 32.5 °F 28.4 °F 65% 29.90 in 9.0 mi South 10.4 mph - N/A   Overcast
7:00 AM 39 °F - 30 °F 60% 29.87 in 10 mi SSE 6.9 mph - -   Overcast
7:00 AM 39.2 °F 33.6 °F 30.2 °F 70% 29.87 in 9.0 mi South 8.1 mph - N/A   Overcast
8:00 AM 41.0 °F 35.8 °F 33.8 °F 76% 29.84 in 9.0 mi SSE 8.1 mph - N/A   Overcast
9:00 AM 42.8 °F 36.2 °F 35.6 °F 76% 29.84 in 9.0 mi SW 12.7 mph - N/A   Overcast
9:04 AM 42.8 °F 35.8 °F 35.6 °F 76% 29.84 in 9.0 mi SW 13.8 mph - N/A Rain Light Rain
10:00 AM 41.0 °F 32.5 °F 35.6 °F 81% 29.83 in 9.0 mi SSW 17.3 mph - N/A Rain Light Rain
10:44 AM 42.8 °F 33.8 °F 35.6 °F 76% 29.81 in 9.0 mi SSW 21.9 mph - N/A   Overcast
11:00 AM 42.8 °F 34.5 °F 35.6 °F 76% 29.79 in 9.0 mi SSW 18.4 mph 26.5 mph N/A   Overcast
12:00 PM 44.6 °F 36.6 °F 35.6 °F 71% 29.75 in 9.0 mi South 19.6 mph 29.9 mph N/A   Overcast
12:29 PM 44.6 °F 36.4 °F 35.6 °F 71% 29.74 in 9.0 mi SSW 20.7 mph 26.5 mph N/A Rain Light Rain
1:00 PM 43 °F - 37 °F 73% 29.73 in 9 mi SSW 23.0 mph - - Rain Light Rain
1:00 PM 42.8 °F 32.9 °F 37.4 °F 81% 29.73 in 9.0 mi SSW 26.5 mph 32.2 mph N/A Rain Light Rain
1:31 PM 44.6 °F 35.9 °F 37.4 °F 76% 29.71 in 9.0 mi SSW 23.0 mph 28.8 mph N/A   Overcast
1:47 PM 44.6 °F 37.2 °F 37.4 °F 76% 29.70 in 9.0 mi SSW 17.3 mph 24.2 mph N/A Rain Light Rain
1:59 PM 44.6 °F 36.4 °F 37.4 °F 76% 29.70 in 9.0 mi SSW 20.7 mph - N/A   Overcast
2:00 PM 44.6 °F 36.4 °F 37.4 °F 76% 29.70 in 9.0 mi SSW 20.7 mph - N/A   Overcast
2:15 PM 44.6 °F 36.9 °F 37.4 °F 76% 29.69 in 9.0 mi SSW 18.4 mph 25.3 mph N/A Rain Light Rain
2:49 PM 44.6 °F 35.9 °F 37.4 °F 76% 29.69 in 9.0 mi SSW 23.0 mph 31.1 mph N/A   Overcast
2:52 PM 44.6 °F 35.7 °F 37.4 °F 76% 29.69 in 9.0 mi SSW 24.2 mph 31.1 mph N/A Rain Light Rain
3:00 PM 44.6 °F 35.5 °F 37.4 °F 76% 29.69 in 9.0 mi SSW 25.3 mph 34.5 mph N/A Rain Light Rain
3:55 PM 44.6 °F 36.9 °F 37.4 °F 76% 29.67 in 9.0 mi SSW 18.4 mph 24.2 mph N/A   Overcast
4:00 PM 44.6 °F 36.6 °F 39.2 °F 81% 29.67 in 9.0 mi SSW 19.6 mph - N/A   Overcast
4:05 PM 44.6 °F 36.6 °F 37.4 °F 76% 29.67 in 9.0 mi SSW 19.6 mph 25.3 mph N/A Rain Light Rain
4:56 PM 44.6 °F 36.1 °F 39.2 °F 81% 29.67 in 9.0 mi WSW 21.9 mph 27.6 mph N/A Rain Light Rain
5:00 PM 44.6 °F 36.4 °F 39.2 °F 81% 29.68 in 9.0 mi WSW 20.7 mph - N/A Rain Light Rain
5:31 PM 42.8 °F 34.8 °F 39.2 °F 87% 29.68 in 9.0 mi WSW 17.3 mph 24.2 mph N/A Rain Light Rain
5:53 PM 42.8 °F 34.8 °F 39.2 °F 87% 29.69 in 9.0 mi WSW 17.3 mph - N/A   Overcast
6:00 PM 42.8 °F 35.1 °F 39.2 °F 87% 29.69 in 9.0 mi WSW 16.1 mph 23.0 mph N/A   Overcast
6:18 PM 42.8 °F 35.1 °F 39.2 °F 87% 29.70 in 9.0 mi WSW 16.1 mph 23.0 mph N/A Rain Light Rain
6:35 PM 42.8 °F 34.8 °F 39.2 °F 87% 29.70 in 9.0 mi WSW 17.3 mph - N/A   Overcast
6:45 PM 42.8 °F 34.8 °F 39.2 °F 87% 29.70 in 9.0 mi WSW 17.3 mph - N/A Rain Light Rain
7:00 PM 42 °F - 39 °F 83% 29.71 in 10 mi WSW 15.0 mph - - Rain Light Rain
7:00 PM 42.8 °F 35.4 °F 39.2 °F 87% 29.71 in 9.0 mi WSW 15.0 mph - N/A Rain Light Rain
7:09 PM 42.8 °F 35.1 °F 39.2 °F 87% 29.71 in 9.0 mi WSW 16.1 mph - N/A   Overcast
7:34 PM 42.8 °F 34.5 °F 39.2 °F 87% 29.71 in 9.0 mi WSW 18.4 mph - N/A   Overcast
7:59 PM 42.8 °F 34.8 °F 39.2 °F 87% 29.71 in 9.0 mi WSW 17.3 mph - N/A   Overcast
8:00 PM 42.8 °F 34.8 °F 39.2 °F 87% 29.71 in 9.0 mi WSW 17.3 mph - N/A   Overcast
9:00 PM 42.8 °F 35.1 °F 37.4 °F 81% 29.73 in 9.0 mi West 16.1 mph 23.0 mph N/A   Overcast
10:00 PM 42.8 °F 35.1 °F 35.6 °F 76% 29.76 in 9.0 mi West 16.1 mph 24.2 mph N/A   Overcast
10:04 PM 42.8 °F 35.1 °F 35.6 °F 76% 29.76 in 9.0 mi WNW 16.1 mph 25.3 mph N/A Rain Light Rain
10:18 PM 41.0 °F 32.5 °F 35.6 °F 81% 29.77 in 9.0 mi WNW 17.3 mph 25.3 mph N/A   Overcast
11:00 PM 41.0 °F 32.5 °F 32.0 °F 70% 29.79 in 9.0 mi WNW 17.3 mph 24.2 mph N/A   Overcast
11:07 PM 41.0 °F 32.8 °F 33.8 °F 76% 29.79 in 9.0 mi WNW 16.1 mph 27.6 mph N/A Rain Light Rain
11:21 PM 39.2 °F 30.5 °F 33.8 °F 81% 29.80 in 9.0 mi WNW 16.1 mph 21.9 mph N/A   Overcast